Location: Newark
(27.9675°N, 86.8869°E)
Time: 05:03:20
(UTC+00:00)

Tiros 1 despin weight - All Passes

Search period start: 17 October 2019 00:00
Search period end: 27 October 2019 00:00
Orbit: 594 x 643 km, 48.2° (Epoch: 16 October)

Date Brightness Start Highest point End Pass type
(mag) Time Alt. Az. Time Alt. Az. Time Alt. Az.
17 Oct - 01:30:12 10° NNW 01:33:13 17° NNE 01:36:12 10° ENE daylight
17 Oct - 03:10:37 10° NW 03:15:16 88° SW 03:19:50 10° SE daylight
17 Oct - 17:14:30 10° SSE 17:16:51 14° SE 17:19:12 10° E night (unlit)
17 Oct - 18:53:21 10° SW 18:57:58 70° NW 19:02:39 10° NE night (unlit)
17 Oct - 20:37:42 10° WNW 20:40:12 14° NNW 20:42:43 10° N night (unlit)
18 Oct - 01:46:05 10° NNW 01:50:09 29° NE 01:54:10 10° E daylight
18 Oct - 03:27:28 10° WNW 03:31:44 38° SW 03:35:57 10° SSE daylight
18 Oct - 17:29:05 10° SSW 17:33:10 32° SE 17:37:18 10° ENE night (unlit)
18 Oct - 19:10:28 10° WSW 19:14:40 34° NW 19:18:56 10° NNE night (unlit)
19 Oct - 00:22:29 10° N 00:24:34 13° NNE 00:26:36 10° NE daylight
19 Oct - 02:02:17 10° NW 02:06:53 59° NE 02:11:25 10° ESE daylight
19 Oct - 03:45:12 10° W 03:48:05 16° SW 03:50:56 10° SSW daylight
19 Oct - 17:45:01 10° SW 17:49:37 75° SE 17:54:17 10° NE night (unlit)
19 Oct - 19:28:15 10° WNW 19:31:34 19° NNW 19:34:54 10° NNE night (unlit)
20 Oct - 00:38:03 10° NNW 00:41:36 21° NNE 00:45:07 10° E daylight
20 Oct - 02:18:51 10° NW 02:23:28 62° SW 02:27:58 10° SE daylight
20 Oct - 16:21:37 10° S 16:24:56 20° SE 16:28:17 10° E night (unlit)
20 Oct - 18:01:44 10° WSW 18:06:12 50° NW 18:10:46 10° NE night (unlit)
20 Oct - 19:47:03 10° NW 19:48:38 12° NNW 19:50:15 10° N night (unlit)
21 Oct - 00:54:04 10° NNW 00:58:27 38° NE 01:02:46 10° ESE daylight
21 Oct - 02:35:59 10° WNW 02:39:52 27° SW 02:43:43 10° S daylight
21 Oct - 16:36:56 10° SSW 16:41:17 45° SE 16:45:44 10° ENE night (unlit)
21 Oct - 18:19:06 10° W 18:22:59 26° NNW 18:26:55 10° NNE night (unlit)
21 Oct - 23:30:09 10° N 23:32:59 16° NNE 23:35:48 10° ENE visible
22 Oct - 01:10:26 10° NW 01:15:07 82° NE 01:19:44 10° SE daylight
22 Oct - 02:54:45 10° WSW 02:56:09 11° SW 02:57:34 10° SW daylight
22 Oct - 15:15:06 10° SSE 15:16:45 12° SE 15:18:23 10° ESE night (unlit)
22 Oct - 16:53:13 10° SW 16:57:48 79° NW 17:02:28 10° NE night (unlit)
22 Oct - 18:37:14 10° WNW 18:39:57 15° NNW 18:42:41 10° N night (unlit)
22 Oct - 23:45:58 10° NNW 23:49:56 27° NE 23:53:53 10° E visible
23 Oct - 01:27:11 10° WNW 01:31:36 43° SW 01:35:58 10° SSE daylight
23 Oct - 15:29:09 10° S 15:33:03 28° SE 15:36:58 10° ENE night (unlit)
23 Oct - 17:10:13 10° WSW 17:14:28 37° NW 17:18:48 10° NNE night (unlit)
23 Oct - 22:22:33 10° N 22:24:18 12° NNE 22:26:03 10° NE visible
24 Oct - 00:02:07 10° NW 00:06:42 52° NE 00:11:13 10° ESE daylight
24 Oct - 01:44:41 10° W 01:47:58 19° SW 01:51:13 10° S daylight
24 Oct - 15:44:57 10° SW 15:49:27 65° SE 15:54:03 10° NE night (unlit)
24 Oct - 17:27:54 10° W 17:31:19 20° NNW 17:34:48 10° NNE night (unlit)
24 Oct - 22:37:58 10° NNW 22:41:22 19° NNE 22:44:45 10° ENE visible
25 Oct - 00:18:38 10° NW 00:23:17 71° SW 00:27:54 10° SE daylight
25 Oct - 14:21:53 10° SSE 14:24:50 17° SE 14:27:48 10° E night (unlit)
25 Oct - 16:01:33 10° WSW 16:06:01 56° NW 16:10:35 10° NE night (unlit)
25 Oct - 17:46:29 10° NW 17:48:23 12° NNW 17:50:18 10° N night (unlit)
25 Oct - 22:53:56 10° NNW 22:58:15 35° NE 23:02:30 10° ESE visible
26 Oct - 00:35:37 10° WNW 00:39:44 31° SW 00:43:47 10° SSE daylight
26 Oct - 14:36:57 10° SSW 14:41:09 39° SE 14:45:27 10° ENE night (unlit)
26 Oct - 16:18:49 10° W 16:22:47 28° NW 16:26:47 10° NNE night (unlit)
26 Oct - 21:30:07 10° N 21:32:43 15° NNE 21:35:20 10° ENE visible
26 Oct - 23:10:14 10° NW 23:14:55 73° NE 23:19:34 10° SE visible
